Location: Demre
(36.2444°N, 29.9850°E)
Time: 11:09:04
(UTC+00:00)

CZ-3C R/B - Pass Details

Date: 11 March 2026
Orbit: 298 x 31817 km, 20.8° (Epoch: 10 April)

Event Time Altitude Azimuth Distance (km) Brightness Sun altitude
Rises 17:38:41 0° 252° (WSW) 13,435 8.9 -19.9°
Reaches altitude 10° 17:56:48 10° 243° (WSW) 7,213 7.1 -23.4°
Maximum altitude 18:08:39 22° 200° (SSW) 2,604 4.2 -25.7°
Enters shadow 18:10:35 19° 176° (S) 2,194 3.6 -26.1°
